Regional Weather Roundup
Issued by NWS Mobile, AL

Home | Current Version | Previous Version | Text Only | Print | Product List | Glossary On
Versions: 1 2 3 4 5 6 7 8 9 10 11 12 13 14 15 16 17 18 19 20 21 22 23 24 25 26 27
000
ASUS44 KMOB 221613
RWRMOB
REGIONAL WEATHER ROUNDUP
NATIONAL WEATHER SERVICE MOBILE AL
1100 AM CDT SUN APR 22 2018

NOTE: "FAIR" INDICATES FEW OR NO CLOUDS BELOW 12,000 FEET WITH NO
      SIGNIFICANT WEATHER AND/OR OBSTRUCTIONS TO VISIBILITY.

  * THESE STATIONS ARE PART OF THE UNIVERSITY OF SOUTH ALABAMA
    MESONET AND ARE NOT UNDER NWS OR FAA QUALITY CONTROL.

ALZ061>064-221700-
COASTAL ALABAMA

CITY           SKY/WX    TMP DP  RH WIND       PRES   REMARKS
MOBILE REG APT LGT RAIN  70  69  97 S14G21    29.99F FOG
BROOKLEY FIELD LGT RAIN  71  70  96 SE17G23   30.00R FOG
USA CAMPUS*    NOT AVBL
DOG RIVER*     NOT AVBL


CITY           SKY/WX    TMP DP  RH WIND       PRES   REMARKS
GULF SHORES    CLOUDY    72  69  91 SE15G22   30.02R

$$

ALZ051>060-221700-
INTERIOR SOUTHWEST AND SOUTH CENTRAL ALABAMA

CITY           SKY/WX    TMP DP  RH WIND       PRES   REMARKS
GREENVILLE     CLOUDY    69  61  75 SE9       30.04F
EVERGREEN      LGT RAIN  70  64  81 SE10      30.03F
ATMORE*          N/A    N/A N/A N/A SE12      30.70F
ANDALUSIA/OPP  CLOUDY    72  64  76 SE10G17   30.04F
ANDALUSIA*       N/A     70  64  83 E10       30.04F
FLORALA APT    CLOUDY    70  64  81 VRB7      30.07F
FLORALA*       NOT AVBL

$$

FLZ001>006-221700-
WESTERN FLORIDA PANHANDLE

CITY           SKY/WX    TMP DP  RH WIND       PRES   REMARKS
PENSACOLA      CLOUDY    74  68  81 SE17      30.00F
NAS PENSACOLA  LGT RAIN  73  68  84 SE16      30.00F
MILTON         PTSUNNY   73  69  87 SE21G28   30.02F
WHTNG S FIELD  CLOUDY    73  69  87 S16G28    30.02F


CITY           SKY/WX    TMP DP  RH WIND       PRES   REMARKS
JAY*           NOT AVBL
DUKE FIELD     CLOUDY    73  66  80 SE13G25   30.04F
CRESTVIEW      CLOUDY    75  66  73 SE9G21    30.05F
VALPARAISO     CLOUDY    73  67  82 SE20G29   30.03F FOG
DESTIN         CLOUDY    75  67  76 SE21G30   30.04F

$$

MSZ076-079-221700-
INTERIOR SOUTHEAST MISSISSIPPI

CITY           SKY/WX    TMP DP  RH WIND       PRES   REMARKS
LEAKESVILLE*   NOT AVBL
AGRICOLA*        N/A     66  66 100 E3        29.96

$$

MARINE OBSERVATIONS

STATION/POSITION TIME  TEMP    WIND        PRES    WAVE
                       AIR SEA DIR/SP/G            HT/PER
                 (UTC) (F)     (DEG/KT/KT) (MB)    (FT/S)
PETIT BOIS ISLND 1548   70     150/ 16/ 20 1015.7F
GRAND BAY        1430   69     140/ 15     1015.0F
KATRINA CUT      1530   70     170/ 12     1016.6R
CEDAR POINT      1530   71     160/ 16       N/A
E DAUPHIN ISLAND 1600   70     140/ 20/ 21 1015.6R
MIDDLE BAY LIGHT 1530   70     150/ 17     1016.9R
USCG MOBILE BAY  1548   69 69  160/ 10/ 14 1015.7R
STATE DOCKS      1536   69 65              1015.8R
MEAHER PARK      1530   72     140/ 11     1015.6S
WEEKS BAY        1445   73                 1016.0F
FORT MORGAN      1548   71     160/ 20/ 21   N/A
12 S ORANGE BCH  1550   71     140/ 17/ 21 1015.9F   4/ 6
PENSACOLA BAY    1536   74 70  150/  8/ 15 1016.6F
64 S DAUPHIN ISL 1550      71  140/ 16/ 19 1015.1F   3/ 6
67 S FORT MORGAN 1530   72                 1015.6F

$$

SELECTED LOCATIONS ACROSS THE REGION

CITY           SKY/WX    TMP DP  RH WIND       PRES   REMARKS
NEW ORLEANS    PTSUNNY   74  69  85 S18G25    29.89R
GULFPORT       LGT RAIN  72  69  90 SE16G24   29.94F FOG
PASCAGOULA AP  CLOUDY    71  67  87 SE16G22   29.97F
PASCAGOULA*    NOT AVBL
HATTIESBURG    CLOUDY    69  67  93 S10       29.93F
LAUREL         PTSUNNY   68  66  94 S12       29.93S
MERIDIAN       HVY RAIN  66  63  90 VRB5      29.95F FOG
JACKSON        RAIN      63  63 100 NW7       29.90F FOG
MONTGOMERY     CLOUDY    69  62  78 E17       30.07F
TROY           LGT RAIN  69  63  81 SE12      30.08F
ASHFORD*         N/A     70  64  83 E10       30.04F
DOTHAN         CLOUDY    70  61  73 SE13      30.12S
PANAMA CITY    CLOUDY    74  66  76 SE13G28   30.07R

$$





USA.gov is the U.S. government's official web portal to all federal, state and local government web resources and services.